User: anonymous   Login
Location: Unspecified
(0.0000°N, 0.0000°E)
Time: 11:25:24
(UTC+00:00)
Language:

UNAMSat - Orbit

View from above orbital plane
View from above orbital plane
View from above satellite
View from above satellite

Ground track
Ground track

The orbit data is extracted from the following two-line orbital elements,

1 24305U 96052B   21170.85791250  .00000040  00000-0  27039-4 0  9993
2 24305  82.9362 349.5768 0028768 289.3995  70.4052 13.73835923242374
Epoch (UTC): 19 June 2021 20:35:23
Eccentricity: 0.0028768
inclination: 82.9362°
perigee height: 964 km
apogee height: 1007 km
right ascension of ascending node: 349.5768°
argument of perigee: 289.3995°
revolutions per day: 13.73835923
mean anomaly at epoch: 70.4052°
orbit number at epoch: 24237

The dashed part of the orbit path shows where the satellite is in the earth's shadow,  

DLR